Regional Weather Roundup
Issued by NWS

Home | Current Version | Previous Version | Graphics & Text | Print | Product List | Glossary On
Versions: 1 2 3 4 5 6 7 8 9 10 11 12 13 14 15 16 17 18 19 20 21 22 23 24 25 26 27 28 29 30 31 32 33 34 35 36 37 38 39 40 41 42 43 44 45 46 47 48 49 50
000
ASUS43 KLMK 231110
RWRKY
KENTUCKY REGIONAL WEATHER ROUNDUP
NATIONAL WEATHER SERVICE LOUISVILLE KY
700 AM EDT WED JUL 23 2014

NOTE "FAIR" INDICATES FEW OR NO CLOUDS BELOW 12,000 FEET
WITH NO SIGNIFICANT WEATHER AND/OR OBSTRUCTIONS TO VISIBILITY.

KYZ001>023-026-027-061>063-070>075-231200-
WESTERN AND SOUTH CENTRAL KENTUCKY

CITY           SKY/WX    TMP DP  RH WIND       PRES   REMARKS
PADUCAH        CLEAR     72  68  87 NW5       30.03R FOG
HENDERSON      CLEAR     70  66  88 W3        30.01R
OWENSBORO      CLEAR     72  71  96 SW6       30.01F
HOPKINSVILLE   CLEAR     73  73 100 SW2       30.06R
BOWLING GREEN  CLEAR     74  70  87 CALM      30.06R
GLASGOW        CLEAR     70  70 100 CALM      30.07S FOG
$$

KYZ024-025-028>034-038-045-046-053-231200-
NORTH CENTRAL KENTUCKY

CITY           SKY/WX    TMP DP  RH WIND       PRES   REMARKS
LOUISVILLE/SDF MOCLDY    78  70  76 CALM      30.03F
LOUISVILLE/LOU MOCLDY    75  71  87 CALM      30.04S
FORT KNOX      PTCLDY    70  68  93 SE2       30.04S
$$

KYZ035>037-039>044-047>052-055>060-089>105-231200-
NORTHEAST KENTUCKY

CITY           SKY/WX    TMP DP  RH WIND       PRES   REMARKS
LEXINGTON      CLEAR     74  69  85 CALM      30.08R
COVINGTON      MOCLDY    74  68  81 CALM      30.06R
FRANKFORT      MOCLDY    71  69  93 CALM      30.06R
$$

KYZ054-064>069-076>088-106>120-231200-
SOUTHEAST KENTUCKY

CITY           SKY/WX    TMP DP  RH WIND       PRES   REMARKS
JACKSON        CLEAR     71  69  93 CALM      30.10R
LONDON         MOCLDY    72  69  90 CALM      30.11R
SOMERSET       CLEAR     70  70 100 CALM      30.10S FOG
MIDDLESBORO    FOG       68  68 100 CALM      30.13R VSB 1/4
MONTICELLO     SUNNY     69  68  97 CALM      30.11R FOG
$$



USA.gov is the U.S. government's official web portal to all federal, state and local government web resources and services.